Regional Weather Roundup
Issued by NWS New Orleans/Baton Rouge, LA

Home | Current Version | Previous Version | Graphics & Text | Print | Product List | Glossary On
Versions: 1 2 3 4 5 6 7 8 9 10 11 12 13 14 15 16 17 18 19 20 21 22 23 24 25 26 27 28 29 30 31 32 33 34 35 36 37 38 39 40 41 42 43 44 45 46 47 48 49 50
559
ASUS44 KLIX 171810
RWRLIX
NEW ORLEANS REGIONAL WEATHER ROUNDUP
NATIONAL WEATHER SERVICE NEW ORLEANS LA
100 PM CDT THU APR 17 2014

NOTE: "FAIR" INDICATES FEW OR NO CLOUDS BELOW 12,000 FEET WITH NO
      SIGNIFICANT WEATHER AND/OR OBSTRUCTIONS TO VISIBILITY.
      SKY/WX - SKY CONDITION AND SIGNIFICANT WEATHER.
      TMP - AIR TEMPERATURE.     DP    - DEWPOINT TEMPERATURE.
      RH  - RELATIVE HUMIDITY.   PRES  - PRESSURE.
      HI  - HEAT INDEX.          WCI   - WIND CHILL INDEX.

*  THESE STATIONS ARE NOT NWS OR FAA STATIONS AND ARE NOT UNDER
   NWS QUALITY CONTROL.

LAZ038-040-048-061>063-065>067-069-171900-
SOUTHEAST LOUISIANA

CITY           SKY/WX    TMP DP  RH WIND       PRES   REMARKS
N.O. AUDUBON     N/A     67  59  75 MISG        N/A
6HR MIN TEMP:  58; 6HR MAX TEMP:  67;

N.O. INTL ARPT CLOUDY    66  59  78 E18       30.17F
6HR MIN TEMP:  58; 6HR MAX TEMP:  66;

N.O. LAKEFRONT CLOUDY    63  59  87 E12       30.21F
6HR MIN TEMP:  58; 6HR MAX TEMP:  64; 6HR PCP: TRACE;

N.O. DOWNTOWN* CLOUDY    63  55  77 NE10G17   30.20F
6HR MIN TEMP:  57; 6HR MAX TEMP:  64;

SLIDELL        CLOUDY    64  57  78 E9        30.19F
6HR MIN TEMP:  53; 6HR MAX TEMP:  65;

BATON ROUGE    CLOUDY    66  53  63 E6        30.18F
6HR MIN TEMP:  51; 6HR MAX TEMP:  67;

BOOTHVILLE     CLOUDY    67  63  87 NE9       30.16F
6HR MIN TEMP:  57; 6HR MAX TEMP:  71;

BELLE CHASSE   DRIZZLE   65  59  81 NE14      30.18F
6HR MIN TEMP:  55; 6HR MAX TEMP:  67;

BOGALUSA*        N/A     67  56  68 SE8       30.22F
6HR MIN TEMP:  51; 6HR MAX TEMP:  68;

GALLIANO*      CLOUDY    67  61  79 N9        30.15F
6HR MIN TEMP:  63; 6HR MAX TEMP:  68;

NEW ROADS*       N/A     64  52  65 E7        30.18F
6HR MIN TEMP:  51; 6HR MAX TEMP:  65;

GONZALES*      CLOUDY    64  56  77 NE5       30.18S
6HR MIN TEMP:  52; 6HR MAX TEMP:  65;

HAMMOND*       CLOUDY    66  54  63 E8        30.21F
HOUMA*         CLOUDY    66  57  72 NE12      30.16F
PORT FOURCHON* MOCLDY    68  61  77 NE9       30.16F

$$

MSZ070-080>082-171900-
SOUTHERN MISSISSIPPI

CITY           SKY/WX    TMP DP  RH WIND       PRES   REMARKS
MCCOMB         CLOUDY    64  53  67 SE8       30.21F
6HR MIN TEMP:  49; 6HR MAX TEMP:  65;

GULFPORT       CLOUDY    67  56  67 E10       30.20F
6HR MIN TEMP:  56; 6HR MAX TEMP:  68;

BILOXI         CLOUDY    68  57  68 E9        30.19F
6HR MIN TEMP:  53; 6HR MAX TEMP:  67;

PASCAGOULA     CLOUDY    68  56  65 E8        30.20F
6HR MIN TEMP:  54; 6HR MAX TEMP:  69;


$$

COASTAL OBSERVATIONS
LAKE AND NEARSHORE STATIONS

STATION/POSITION TIME  TEMP    WIND        PRES    WAVE
                       AIR SEA DIR/SP/G            HT/PER
                 (UTC) (F)     (DEG/KT/KT) (MB)    (FT/S)
PASCAGOULA       1800   66      80/ 14/ 18 1022.0
WAVELAND YACHT   1800   62 66  110/ 21/ 23 1022.0
GRAND ISLE       1800   68 67   70/  8/ 11 1021.4
SOUTHWEST PASS   1800   71 58   60/ 14/ 15 1020.4
NEW CANAL        1800   63 63   70/ 12/ 15 1023.0
SHELL BEACH      1800   62 61   60/ 18/ 22 1021.6

OFFSHORE STATIONS

STATION/POSITION TIME  TEMP    WIND        PRES    WAVE
                       AIR SEA DIR/SP/G            HT/PER
                 (UTC) (F)     (DEG/KT/KT) (MB)    (FT/S)
64 S DAUPHIN ISL 1653   66 71   80/ 23/ 29 1021.2

$$




USA.gov is the U.S. government's official web portal to all federal, state and local government web resources and services.